Location: Ca�n Batista
(41.4099°N, 1.7752°E)
Time: 04:14:15
(UTC+00:00)

Resurs 01 Rocket - Visible Passes

Search period start: 14 June 2021 00:00
Search period end: 24 June 2021 00:00
Orbit: 633 x 645 km, 97.9° (Epoch: 13 June)

Date Brightness Start Highest point End Pass type
(mag) Time Alt. Az. Time Alt. Az. Time Alt. Az.
14 Jun 1.7 20:17:20 10° SSE 20:21:42 67° ENE 20:26:05 10° N visible
14 Jun 4.3 21:57:29 10° WSW 21:58:38 11° W 21:59:47 10° WNW visible
15 Jun 1.9 20:40:29 10° S 20:44:51 68° WSW 20:49:15 10° NNW visible
16 Jun 2.9 21:04:00 10° SSW 21:08:05 37° W 21:12:11 10° NNW visible
17 Jun 3.7 21:28:01 10° SW 21:31:23 21° W 21:34:46 10° NW visible
18 Jun 1.7 20:13:34 10° SSE 20:17:54 61° ENE 20:22:15 10° N visible
18 Jun 4.3 21:53:03 10° WSW 21:54:46 12° W 21:56:30 10° WNW visible
19 Jun 1.8 20:36:39 10° S 20:41:02 75° WSW 20:45:27 10° NNW visible
20 Jun 2.7 21:00:06 10° S 21:04:14 41° W 21:08:25 10° NNW visible
21 Jun 3.6 21:24:01 10° SSW 21:27:32 23° W 21:31:04 10° NW visible
22 Jun 1.9 20:09:47 10° SSE 20:14:05 55° ENE 20:18:24 10° N visible
22 Jun 4.2 21:48:46 10° WSW 21:50:54 13° W 21:53:03 10° WNW visible
23 Jun 1.7 20:32:48 10° S 20:37:13 82° W 20:41:38 10° NNW visible
